This demonstration page uses our WeatherBlox Daily Observations layout. Learn more.

Left ArrowRight Arrow

38.80484, -77.04692

Hourly Observations for October 5, 2019

Temp ( °F °C ) Dew Point ( °F °C ) Humidity (%) Winds ( mph kmh ) Pressure ( in mb ) Visibility ( mi km ) Precip ( " mm )
12:52 am 00:52 Partly Cloudy 54 12.2 41 5 62 62 NNE 15 24 30.35 1028 10 16 0.00 0.00
1:52 am 01:52 Mostly Clear 54 12.2 40 4.4 59 59 NNE 10 17 30.36 1028 10 16 0.00 0.00
2:52 am 02:52 Mostly Cloudy 53 11.7 40 4.4 61 61 NNE 15 24 30.37 1028 10 16 0.00 0.00
3:52 am 03:52 Mostly Cloudy 51 10.6 40 4.4 66 66 NNE 10 17 30.37 1029 10 16 0.00 0.00
4:52 am 04:52 Mostly Cloudy 51 10.6 39 3.9 64 64 NNE 10 17 30.38 1029 10 16 0.00 0.00
5:52 am 05:52 Cloudy 50 10 39 3.9 66 66 N 12 19 30.38 1029 10 16 0.00 0.00
6:52 am 06:52 Mostly Cloudy 50 10 40 4.4 68 68 NNE 12 19 30.39 1029 10 16 0.00 0.00
7:52 am 07:52 Partly Cloudy 49 9.4 40 4.4 71 71 NNE 10 17 30.41 1030 10 16 0.00 0.00
8:52 am 08:52 Mostly Cloudy 51 10.6 40 4.4 66 66 NE 9 15 30.43 1030 10 16 0.00 0.00
9:52 am 09:52 Partly Cloudy 55 12.8 42 5.6 62 62 NNE 9 15 30.44 1031 10 16 0.00 0.00
10:52 am 10:52 Mostly Cloudy 59 15 44 6.7 58 58 ENE 8 13 30.43 1030 10 16 0.00 0.00
11:52 am 11:52 Mostly Cloudy 62 16.7 45 7.2 54 54 ENE 9 15 30.42 1030 10 16 0.00 0.00
12:52 pm 12:52 Mostly Cloudy 62 16.7 46 7.8 56 56 ENE 8 13 30.40 1030 10 16 0.00 0.00
1:52 pm 13:52 Mostly Cloudy 65 18.3 46 7.8 51 51 SE 8 13 30.37 1029 10 16 0.00 0.00
2:52 pm 14:52 Mostly Cloudy 65 18.3 46 7.8 51 51 ENE 7 11 30.35 1028 10 16 0.00 0.00
3:52 pm 15:52 Mostly Cloudy 66 18.9 47 8.3 50 50 ESE 8 13 30.34 1027 10 16 0.00 0.00
4:52 pm 16:52 Mostly Cloudy 66 18.9 46 7.8 49 49 ESE 12 19 30.33 1027 10 16 0.00 0.00
5:52 pm 17:52 Mostly Cloudy 65 18.3 47 8.3 52 52 ESE 13 20 30.32 1027 10 16 0.00 0.00
6:52 pm 18:52 Mostly Cloudy 64 17.8 47 8.3 54 54 ESE 10 17 30.32 1027 10 16 0.00 0.00
7:52 pm 19:52 Cloudy 64 17.8 46 7.8 52 52 SE 10 17 30.31 1027 10 16 0.00 0.00
8:52 pm 20:52 Cloudy 63 17.2 47 8.3 56 56 ESE 14 22 30.32 1027 10 16 0.00 0.00
9:52 pm 21:52 Cloudy 62 16.7 48 8.9 60 60 SE 13 20 30.33 1027 10 16 0.00 0.00
10:52 pm 22:52 Cloudy 62 16.7 50 10 65 65 SE 6 9 30.33 1027 10 16 0.00 0.00
11:52 pm 23:52 Cloudy 62 16.7 51 10.6 67 67 SSE 7 11 30.32 1027 10 16 0.00 0.00

Powered by AerisWeather